Weather History for 78458 - September, 2013

Change the Weather History Date:

Thursday, September 5, 2013

  Actual Average Record
Temperature  
Mean Temperature 80 °F -  
Max Temperature 87 °F 88 °F - ()
Min Temperature 74 °F 74 °F - ()
Cooling Degree Days 16    
Growing Degree Days 30 (Base 50)    
Moisture  
Dew Point 79 °F    
Average Humidity 89    
Maximum Humidity 100    
Minimum Humidity 78    
Precipitation  
Precipitation 0.47 in - - ()
Sea Level Pressure  
Sea Level Pressure 29.93 in    
Wind  
Wind Speed 2 mph ()    
Max Wind Speed 12 mph    
Max Gust Speed -    
Visibility 7.1 miles    
Events Rain    
T = Trace of Precipitation, MM = Missing Value Source: Averaged Metar Reports

Daily Weather History Graph

Daily Weather History Graph

Search for Another Location

Airport or City:

Trip Planner

Search our weather history database for the weather conditions in past years. The results will help you decide how hot, cold, wet, or windy it might be!

Date:

Astronomy

Sep. 05, 2013 Rise Set
Actual Time 6:27 AM AST 6:53 PM AST
Civil Twilight 6:05 AM AST 7:15 PM AST
Nautical Twilight 5:39 AM AST 7:41 PM AST
Astronomical Twilight 5:13 AM AST 8:07 PM AST
Moon 6:28 AM AST (9/5) 6:55 PM AST (9/5)
Length of Visible Light 13h 10m
Length of Day
12h 25m
New Moon, 0% of the Moon is Illuminated
Sep 5
New Moon
Sep 12
First Quarter
Sep 19
Full
Sep 26
Last Quarter
Oct 4
New

Hourly Weather History & Observations

Time (AST) Temp. Heat Index Dew Point Humidity Pressure Visibility Wind Dir Wind Speed Gust Speed Precip Events Conditions
2:00 AM 77.0 °F - 75.2 °F 94% 29.95 in 5.0 mi Calm Calm - N/A Rain Light Rain
5:00 AM 77 °F - 76 °F 95% 29.94 in 10 mi Calm Calm - -   Partly Cloudy
5:00 AM 77.0 °F - 75.2 °F 94% 29.92 in 6.2 mi Calm Calm - N/A   Mostly Cloudy
8:00 AM 77 °F - 76 °F 98% 29.96 in 10 mi Calm Calm - -   Partly Cloudy
8:00 AM 77.0 °F - 77.0 °F 100% 29.95 in 6.2 mi Calm Calm - N/A   Mostly Cloudy
9:00 AM 80.6 °F 88.1 °F 78.8 °F 94% 29.95 in - SSW 5.8 mph - N/A Rain Light Rain
10:00 AM - - - N/A% 29.98 in 6.2 mi East 5.8 mph - N/A   Mostly Cloudy
11:00 AM 86 °F - 80 °F 78% 29.99 in 10 mi Calm Calm - -   Partly Cloudy
11:00 AM 86.0 °F 101.9 °F 80.6 °F 84% 29.98 in 6.2 mi Calm Calm - N/A   Scattered Clouds
12:00 PM 86.0 °F 101.9 °F 80.6 °F 84% 29.95 in 6.2 mi NE 8.1 mph - N/A   Mostly Cloudy
1:00 PM 86.0 °F 101.9 °F 80.6 °F 84% 29.95 in 6.2 mi ENE 5.8 mph - N/A   Mostly Cloudy
2:00 PM 86.0 °F 101.9 °F 80.6 °F 84% 29.92 in 6.2 mi NNE 5.8 mph - N/A   Mostly Cloudy
3:00 PM 87.8 °F 104.9 °F 80.6 °F 79% 29.89 in 6.2 mi ENE 11.5 mph - N/A   Scattered Clouds
4:00 PM 87.8 °F 104.9 °F 80.6 °F 79% 29.89 in 6.2 mi East 6.9 mph - N/A   Scattered Clouds
5:00 PM 87.8 °F 104.9 °F 80.6 °F 79% 29.86 in 6.2 mi East 6.9 mph - N/A   Scattered Clouds
6:00 PM 84.2 °F 98.3 °F 80.6 °F 89% 29.86 in 6.2 mi East 6.9 mph - N/A   Scattered Clouds
7:00 PM 82.4 °F 92.4 °F 78.8 °F 89% 29.89 in 6.2 mi Calm Calm - N/A   Scattered Clouds
8:00 PM 81 °F - 79 °F 91% 29.91 in 10 mi Calm Calm - - Rain Light Rain Showers
8:00 PM 80.6 °F 88.1 °F 78.8 °F 94% 29.89 in 6.2 mi Calm Calm - N/A   Mostly Cloudy
11:00 PM 80 °F - 78 °F 93% 29.93 in 10 mi Calm Calm - -   Partly Cloudy
11:00 PM 78.8 °F - 78.8 °F 100% 29.92 in 6.2 mi Calm Calm - N/A   Scattered Clouds